| time (UTC) | temp C | wind direction | speed KPH | gust KPH | rain 1hr cm | rain 24hr cm | rain mn cm | humidity % | barometer mb |
| 20260507202649 | 17 | 150 | 6.4 | 17.7 | 0.00 | 0.10 | 0.10 | 50 | 1007.6 |
| 20260507200540 | 17 | 225 | 4.8 | 12.9 | 0.00 | 0.10 | 0.10 | 51 | 1007.7 |
| 20260507195554 | 17 | 279 | 6.4 | 16.1 | 0.00 | 0.10 | 0.10 | 51 | 1007.6 |
| 20260507194606 | 17 | 186 | 4.8 | 16.1 | 0.00 | 0.10 | 0.10 | 50 | 1007.5 |
| 20260507193629 | 17 | 142 | 3.2 | 17.7 | 0.00 | 0.10 | 0.10 | 49 | 1007.7 |
| 20260507192629 | 17 | 191 | 3.2 | 17.7 | 0.00 | 0.10 | 0.10 | 48 | 1008.0 |
| 20260507191613 | 18 | 134 | 3.2 | 9.7 | 0.00 | 0.10 | 0.10 | 45 | 1008.2 |
| 20260507185455 | 18 | 258 | 1.6 | 11.3 | 0.00 | 0.10 | 0.10 | 42 | 1008.5 |
| 20260507184449 | 17 | 159 | 1.6 | 6.4 | 0.00 | 0.10 | 0.10 | 43 | 1008.4 |
| 20260507183443 | 16 | 111 | 3.2 | 9.7 | 0.00 | 0.10 | 0.10 | 44 | 1008.6 |
| 20260507182442 | 16 | 165 | 3.2 | 9.7 | 0.00 | 0.10 | 0.10 | 44 | 1008.9 |
| 20260507181455 | 16 | 82 | 4.8 | 9.7 | 0.00 | 0.10 | 0.10 | 44 | 1008.9 |
| 20260507180454 | 16 | 89 | 1.6 | 8.0 | 0.00 | 0.10 | 0.10 | 45 | 1009.2 |
| 20260507175510 | 16 | 144 | 0.0 | 0.0 | 0.00 | 0.10 | 0.10 | 45 | 1009.3 |
| 20260507174450 | 16 | 84 | 3.2 | 8.0 | 0.00 | 0.10 | 0.10 | 46 | 1009.3 |
| 20260507173427 | 16 | 115 | 0.0 | 4.8 | 0.00 | 0.10 | 0.10 | 46 | 1009.5 |
| 20260507172424 | 16 | 105 | 0.0 | 1.6 | 0.00 | 0.10 | 0.10 | 48 | 1009.9 |
| 20260507171353 | 15 | 112 | 0.0 | 8.0 | 0.00 | 0.10 | 0.10 | 47 | 1010.0 |
| 20260507170353 | 15 | 93 | 0.0 | 6.4 | 0.00 | 0.10 | 0.10 | 47 | 1010.2 |
| 20260507165345 | 15 | 127 | 0.0 | 9.7 | 0.00 | 0.10 | 0.10 | 47 | 1010.5 |
| 20260507164358 | 15 | 95 | 1.6 | 9.7 | 0.00 | 0.10 | 0.10 | 46 | 1010.3 |
| 20260507163337 | 15 | 96 | 0.0 | 6.4 | 0.00 | 0.10 | 0.10 | 47 | 1010.5 |
| 20260507162352 | 15 | 5 | 0.0 | 6.4 | 0.00 | 0.10 | 0.10 | 48 | 1010.6 |
| 20260507161402 | 15 | 311 | 0.0 | 1.6 | 0.00 | 0.10 | 0.10 | 56 | 1010.7 |
| 20260507160418 | 14 | 311 | 0.0 | 1.6 | 0.00 | 0.10 | 0.10 | 54 | 1010.9 |
| 20260507155356 | 14 | 311 | 0.0 | 0.0 | 0.00 | 0.10 | 0.10 | 57 | 1011.0 |
| 20260507154408 | 13 | 311 | 0.0 | 6.4 | 0.00 | 0.10 | 0.10 | 54 | 1010.9 |
| 20260507153429 | 13 | 257 | 0.0 | 1.6 | 0.00 | 0.10 | 0.10 | 57 | 1011.2 |
| 20260507151257 | 13 | 257 | 0.0 | 4.8 | 0.00 | 0.13 | 0.10 | 58 | 1011.1 |
| 20260507150240 | 13 | 248 | 0.0 | 1.6 | 0.00 | 0.18 | 0.10 | 59 | 1011.3 |
| 20260507143000 | 12 | 284 | 0.0 | 0.0 | 0.00 | 0.25 | 0.10 | 69 | 1011.7 |
| 20260507142001 | 12 | 284 | 0.0 | 0.0 | 0.00 | 0.30 | 0.10 | 67 | 1011.7 |
| 20260507140957 | 12 | 284 | 0.0 | 0.0 | 0.00 | 0.30 | 0.10 | 70 | 1011.8 |
| 20260507140008 | 12 | 226 | 0.0 | 0.0 | 0.00 | 0.43 | 0.10 | 71 | 1011.8 |
| 20260507135024 | 12 | 226 | 0.0 | 0.0 | 0.00 | 0.51 | 0.10 | 71 | 1011.8 |
| 20260507134011 | 12 | 226 | 0.0 | 0.0 | 0.00 | 0.56 | 0.10 | 73 | 1012.0 |
| 20260507133010 | 12 | 226 | 0.0 | 0.0 | 0.00 | 0.64 | 0.10 | 74 | 1012.1 |
| 20260507131941 | 12 | 226 | 0.0 | 0.0 | 0.00 | 0.76 | 0.10 | 75 | 1011.8 |
| 20260507130951 | 12 | 226 | 0.0 | 0.0 | 0.00 | 0.81 | 0.10 | 76 | 1011.9 |
| 20260507130006 | 12 | 226 | 0.0 | 0.0 | 0.00 | 0.81 | 0.10 | 73 | 1011.6 |
| 20260507125016 | 12 | 222 | 0.0 | 0.0 | 0.00 | 0.81 | 0.10 | 73 | 1011.7 |
| 20260507124003 | 12 | 222 | 0.0 | 0.0 | 0.00 | 0.81 | 0.10 | 73 | 1011.8 |
| 20260507122940 | 12 | 222 | 0.0 | 0.0 | 0.00 | 0.81 | 0.10 | 77 | 1012.0 |
| 20260507121937 | 12 | 333 | 0.0 | 0.0 | 0.00 | 0.86 | 0.10 | 80 | 1011.6 |
| 20260507121001 | 12 | 333 | 0.0 | 1.6 | 0.00 | 0.89 | 0.10 | 82 | 1011.7 |
| 20260507120014 | 12 | 333 | 0.0 | 0.0 | 0.00 | 0.89 | 0.10 | 87 | 1011.6 |
| 20260507115022 | 12 | 333 | 0.0 | 0.0 | 0.00 | 0.89 | 0.10 | 87 | 1011.4 |
| 20260507114018 | 12 | 333 | 0.0 | 1.6 | 0.00 | 0.89 | 0.10 | 86 | 1011.3 |
| 20260507112958 | 12 | 333 | 0.0 | 0.0 | 0.00 | 0.89 | 0.10 | 90 | 1011.2 |
| 20260507111937 | 12 | 333 | 0.0 | 0.0 | 0.00 | 0.89 | 0.10 | 89 | 1011.3 |
| 20260507110930 | 12 | 333 | 0.0 | 0.0 | 0.00 | 0.89 | 0.10 | 89 | 1011.1 |
| 20260507105922 | 12 | 333 | 0.0 | 0.0 | 0.00 | 0.89 | 0.10 | 89 | 1011.2 |
| 20260507104852 | 12 | 343 | 0.0 | 0.0 | 0.00 | 0.89 | 0.10 | 90 | 1011.1 |
| 20260507103838 | 12 | 343 | 0.0 | 0.0 | 0.00 | 0.89 | 0.10 | 90 | 1010.9 |
| 20260507102813 | 12 | 343 | 0.0 | 0.0 | 0.00 | 0.89 | 0.10 | 90 | 1010.8 |
| 20260507100650 | 12 | 343 | 0.0 | 0.0 | 0.00 | 0.89 | 0.10 | 90 | 1010.7 |
| 20260507095715 | 12 | 343 | 0.0 | 0.0 | 0.00 | 0.89 | 0.10 | 90 | 1010.5 |
| 20260507094728 | 12 | 343 | 0.0 | 0.0 | 0.00 | 0.89 | 0.10 | 89 | 1010.6 |
| 20260507093714 | 12 | 343 | 0.0 | 0.0 | 0.00 | 0.89 | 0.10 | 89 | 1010.6 |
| 20260507092738 | 12 | 343 | 0.0 | 0.0 | 0.00 | 0.89 | 0.10 | 88 | 1010.5 |
| 20260507091742 | 12 | 343 | 0.0 | 0.0 | 0.00 | 0.89 | 0.10 | 89 | 1010.1 |
| 20260507090747 | 12 | 343 | 0.0 | 0.0 | 0.00 | 0.89 | 0.10 | 89 | 1010.3 |
| 20260507085714 | 12 | 343 | 0.0 | 0.0 | 0.00 | 0.89 | 0.10 | 88 | 1010.5 |
| 20260507084700 | 13 | 343 | 0.0 | 0.0 | 0.00 | 0.89 | 0.10 | 89 | 1010.2 |
| 20260507083706 | 13 | 343 | 0.0 | 0.0 | 0.00 | 0.89 | 0.10 | 90 | 1010.2 |
| 20260507080416 | 13 | 343 | 0.0 | 0.0 | 0.00 | 0.89 | 0.10 | 91 | 1009.6 |
| 20260507075437 | 13 | 343 | 0.0 | 0.0 | 0.00 | 0.89 | 0.10 | 91 | 1009.6 |
| 20260507074427 | 13 | 343 | 0.0 | 0.0 | 0.00 | 0.89 | 0.10 | 91 | 1009.5 |
| 20260507072333 | 13 | 343 | 0.0 | 0.0 | 0.00 | 0.89 | 0.10 | 90 | 1009.3 |
| 20260507071306 | 13 | 343 | 0.0 | 0.0 | 0.00 | 0.89 | 0.10 | 91 | 1009.4 |
| 20260507065146 | 13 | 343 | 0.0 | 0.0 | 0.00 | 0.89 | 0.10 | 90 | 1009.3 |
| 20260507064154 | 13 | 343 | 0.0 | 0.0 | 0.00 | 0.89 | 0.10 | 90 | 1009.4 |
| 20260507063122 | 13 | 343 | 0.0 | 0.0 | 0.00 | 0.89 | 0.10 | 91 | 1009.5 |
| 20260507062054 | 13 | 343 | 0.0 | 0.0 | 0.00 | 0.89 | 0.10 | 90 | 1009.3 |
| 20260507061032 | 13 | 343 | 0.0 | 0.0 | 0.00 | 0.89 | 0.10 | 90 | 1009.3 |
| 20260507060044 | 13 | 343 | 0.0 | 0.0 | 0.00 | 0.89 | 0.10 | 90 | 1009.2 |
| 20260507055106 | 13 | 343 | 0.0 | 0.0 | 0.00 | 0.89 | 0.10 | 89 | 1009.4 |
| 20260507054112 | 13 | 342 | 0.0 | 0.0 | 0.00 | 0.89 | 0.10 | 89 | 1009.4 |
| 20260507053055 | 14 | 342 | 0.0 | 0.0 | 0.00 | 0.86 | 0.08 | 89 | 1009.5 |
| 20260507052037 | 14 | 342 | 0.0 | 0.0 | 0.00 | 0.86 | 0.08 | 88 | 1009.2 |
| 20260507045914 | 15 | 334 | 0.0 | 0.0 | 0.00 | 0.86 | 0.08 | 85 | 1009.5 |
| 20260507044927 | 15 | 334 | 0.0 | 1.6 | 0.00 | 0.86 | 0.08 | 85 | 1009.7 |
| 20260507043940 | 16 | 343 | 0.0 | 6.4 | 0.20 | 0.86 | 0.08 | 83 | 1009.5 |
| 20260507042916 | 16 | 304 | 0.0 | 0.0 | 0.33 | 0.84 | 0.05 | 83 | 1009.6 |
| 20260507041929 | 17 | 304 | 0.0 | 0.0 | 0.00 | 0.79 | 0.00 | 80 | 1009.6 |
| 20260507040903 | 17 | 304 | 0.0 | 0.0 | 0.00 | 0.79 | 0.00 | 78 | 1009.3 |
| 20260507035838 | 17 | 304 | 0.0 | 0.0 | 0.00 | 0.79 | 0.79 | 77 | 1009.3 |
| 20260507033629 | 17 | 304 | 0.0 | 6.4 | 0.00 | 0.79 | 0.79 | 73 | 1009.0 |
| 20260507030421 | 18 | 329 | 0.0 | 1.6 | 0.00 | 0.79 | 0.79 | 73 | 1008.5 |
| 20260507025353 | 18 | 16 | 0.0 | 9.7 | 0.00 | 0.79 | 0.79 | 72 | 1008.4 |
| 20260507023221 | 18 | 355 | 1.6 | 8.0 | 0.00 | 0.79 | 0.79 | 74 | 1008.5 |
| 20260507022235 | 18 | 350 | 0.0 | 8.0 | 0.00 | 0.79 | 0.79 | 76 | 1008.2 |
| 20260507021216 | 19 | 351 | 0.0 | 0.0 | 0.00 | 0.79 | 0.79 | 78 | 1008.2 |
| 20260507020239 | 19 | 351 | 1.6 | 8.0 | 0.00 | 0.79 | 0.79 | 76 | 1008.0 |
| 20260507014201 | 20 | 0 | 0.0 | 6.4 | 0.00 | 0.79 | 0.79 | 79 | 1007.8 |
| 20260507013159 | 20 | 262 | 0.0 | 0.0 | 0.00 | 0.79 | 0.79 | 81 | 1008.0 |
| 20260507012131 | 20 | 262 | 0.0 | 0.0 | 0.00 | 0.79 | 0.79 | 81 | 1008.1 |
| 20260507011102 | 20 | 262 | 0.0 | 0.0 | 0.00 | 0.79 | 0.79 | 81 | 1008.0 |
| 20260507003931 | 20 | 262 | 0.0 | 0.0 | 0.00 | 0.79 | 0.79 | 79 | 1007.7 |
| 20260507002923 | 20 | 262 | 0.0 | 0.0 | 0.00 | 0.79 | 0.79 | 78 | 1007.7 |
| 20260507001919 | 21 | 262 | 0.0 | 0.0 | 0.00 | 0.79 | 0.79 | 78 | 1007.5 |
| 20260507000921 | 21 | 262 | 0.0 | 0.0 | 0.00 | 0.79 | 0.79 | 77 | 1007.5 |
| 20260506234725 | 21 | 262 | 0.0 | 0.0 | 0.00 | 0.79 | 0.79 | 76 | 1007.4 |
| 20260506232618 | 21 | 262 | 0.0 | 4.8 | 0.00 | 0.79 | 0.79 | 74 | 1007.1 |
| 20260506231615 | 21 | 240 | 0.0 | 4.8 | 0.00 | 0.79 | 0.79 | 75 | 1007.0 |
| 20260506230553 | 21 | 240 | 0.0 | 1.6 | 0.00 | 0.79 | 0.79 | 74 | 1007.0 |
| 20260506225557 | 21 | 190 | 0.0 | 6.4 | 0.00 | 0.79 | 0.79 | 74 | 1006.9 |
| 20260506224534 | 21 | 277 | 0.0 | 1.6 | 0.00 | 0.79 | 0.79 | 74 | 1006.8 |
| 20260506223554 | 21 | 222 | 1.6 | 11.3 | 0.00 | 0.79 | 0.79 | 73 | 1006.8 |
| 20260506222601 | 21 | 212 | 1.6 | 17.7 | 0.00 | 0.79 | 0.79 | 73 | 1006.8 |
| 20260506221554 | 22 | 207 | 6.4 | 17.7 | 0.00 | 0.79 | 0.79 | 72 | 1006.6 |
| 20260506220609 | 22 | 246 | 3.2 | 14.5 | 0.00 | 0.79 | 0.79 | 72 | 1006.6 |
| 20260506215548 | 22 | 192 | 4.8 | 17.7 | 0.00 | 0.79 | 0.79 | 72 | 1006.7 |
| 20260506214551 | 22 | 245 | 4.8 | 20.9 | 0.00 | 0.79 | 0.79 | 73 | 1006.7 |
| 20260506213546 | 22 | 267 | 6.4 | 20.9 | 0.00 | 0.79 | 0.79 | 73 | 1006.7 |
| 20260506212600 | 22 | 230 | 4.8 | 19.3 | 0.00 | 0.79 | 0.79 | 72 | 1006.7 |
| 20260506211528 | 22 | 271 | 6.4 | 19.3 | 0.00 | 0.79 | 0.79 | 71 | 1006.6 |
| 20260506210516 | 22 | 265 | 6.4 | 14.5 | 0.00 | 0.79 | 0.79 | 71 | 1006.6 |
| 20260506205450 | 22 | 167 | 6.4 | 19.3 | 0.00 | 0.79 | 0.79 | 71 | 1006.0 |
| 20260506204458 | 22 | 241 | 4.8 | 19.3 | 0.00 | 0.79 | 0.79 | 71 | 1006.3 |
| 20260506203447 | 22 | 213 | 4.8 | 17.7 | 0.00 | 0.79 | 0.79 | 71 | 1006.1 |